Regional Weather Roundup
Issued by NWS

Home | Current Version | Previous Version | Text Only | Print | Product List | Glossary On
Versions: 1 2 3 4 5 6 7 8 9 10 11 12 13 14 15 16 17 18 19 20 21 22 23 24 25 26 27 28 29 30 31 32 33 34 35 36 37 38 39 40 41 42 43 44 45 46 47 48 49 50
000
ASUS42 KFFC 211003
RWRGA
WEATHER ROUNDUP FOR GEORGIA
NATIONAL WEATHER SERVICE PEACHTREE CITY GA
600 AM EDT SUN SEP 21 2014

NOTE: "FAIR" INDICATES FEW OR NO CLOUDS BELOW 12,000 FEET WITH NO
SIGNIFICANT WEATHER AND/OR OBSTRUCTIONS TO VISIBILITY.

* = USE WITH CAUTION. THE STATIONS MARKED WITH AN ASTERISK MAY NOT
REPORT WEATHER SUCH AS PRECIPITATION, FOG, OR THUNDER AND ARE NOT
QUALITY CONTROLLED BY NWS.

THE REMARK "TC" DENOTES TEMPERATURE READING IN DEGREES CELSIUS.

GAZ001>058-211100-
NORTH GEORGIA

CITY           SKY/WX    TMP DP  RH WIND       PRES   REMARKS
ATLANTA        CLEAR     64  60  87 NW3       30.02R
ATHENS         CLEAR     60  59  96 CALM      30.01R
CHAMBLEE       CLEAR     60  58  92 CALM      30.02S
PEACHTREE CITY CLEAR     57  56  96 CALM      30.03R
ROME           CLEAR     58  58 100 CALM      30.01F FOG
WEST ATLANTA   CLEAR     60  58  92 CALM      30.02R
GAINESVILLE    CLEAR     63  59  87 NW5       30.04R
CARTERSVILLE   CLEAR     58  57  97 CALM      30.03S


CITY           SKY/WX    TMP DP  RH WIND       PRES   REMARKS
DALTON*        CLEAR     59  59 100 CALM      30.01F
MARIETTA       CLEAR     60  59  96 W6        30.03R
$$

GAZ059>098-102>109-211100-
CENTRAL GEORGIA

CITY           SKY/WX    TMP DP  RH WIND       PRES   REMARKS
AUGUSTA-BUSH   CLEAR     58  57  97 CALM      29.97S
AUGUSTA-DANIEL CLEAR     67  61  81 N7        29.98S
COLUMBUS       CLEAR     63  60  90 CALM      30.00S
MACON          CLEAR     58  58 100 CALM      30.00S
ROBINS AFB     CLEAR     61  60  97 CALM      30.00S


CITY           SKY/WX    TMP DP  RH WIND       PRES   REMARKS
LAGRANGE*      PTCLDY    62  62  99 CALM      30.02S
SYLVANIA*      CLEAR     64  63  97 CALM      29.97S
MILLEDGEVILLE* CLEAR     61  61 100 CALM      30.00S
$$

GAZ099>101-110>166-211100-
SOUTH GEORGIA

CITY           SKY/WX    TMP DP  RH WIND       PRES   REMARKS
SAVANNAH       CLEAR     65  59  81 NW5       29.96R
VALDOSTA       CLEAR     63  60  90 CALM      29.99R
ALMA           CLEAR     63  61  93 NW5       29.99R
ST SIMONS      CLEAR     66  62  87 NW7       29.96R
FT STEWART     CLEAR     63  59  88 CALM      29.96R
ALBANY         CLEAR     64  62  93 CALM      30.02S
HUNTER AFB     CLEAR     64  62  91 NW6       29.94R
MOODY AFB      CLEAR     64  62  94 N6        29.99R
BRUNSWICK      CLEAR     64  63  94 CALM      29.97R


CITY           SKY/WX    TMP DP  RH WIND       PRES   REMARKS
BAINBRIDGE*    CLEAR     66  64  94 CALM      30.00S
MOULTRIE*      CLEAR     63  63 100 CALM      30.01R
VIDALIA*       CLEAR     63  61  94 CALM      29.99S
DOUGLAS*       CLEAR     64  61  88 N5        30.01R
$$


USA.gov is the U.S. government's official web portal to all federal, state and local government web resources and services.